Home > Weather > Sunrise > Past weeks

Flag for USA Weather for the Past 2 Weeks in Sunrise, Florida, USA

Now
78 °F

Clear.


Feels Like: 80 °F
Forecast: 74 / 86 °F
Wind: 5 mph from West

Location: Fort Lauderdale Executive Airport

Current Time: May 3, 2016 at 10:55:12 PM

Latest Report: May 3, 2016 at 9:53 PM


Visibility: 10 mi

Pressure: 29.93 "Hg

Humidity: 76%

Dew Point: 70 °F

Location of SunriseLocation

Historic Weather in Sunrise — Graph

°F

Sunrise Temperature Yesterday

Maximum temperature yesterday: 86 °F (at 11:53 AM)
Minimum temperature yesterday: 78 °F (at 1:53 AM)
Average temperature yesterday: 81 °F

High & Low Weather Summary for the Past Weeks

 TemperatureHumidityPressure
High88 °F (Apr 23, 2:53 PM)91% (Apr 23, 7:53 AM)30.16 "Hg (Apr 23, 7:53 AM)
Low66 °F (Apr 19, 6:53 AM)32% (Apr 23, 6:53 PM)29.87 "Hg (Apr 23, 4:53 PM)
Average78 °F61%30.00 "Hg
* Reported Apr 18 9:53 PM — May 3 9:53 PM, Sunrise, Weather by CustomWeather, © 2016

Note: Actual official high and low records may vary slightly from our data, if they occured in-between our weather recording intervals... More about our weather records

Advertising

Sunrise Weather History for the Previous 24 Hours

Scroll right to see more
 ConditionsComfort  
Time TempWeatherWind HumidityBarometerVisibility
9:53 PM
Tue, May 3
78 °FClear.5 mph76%29.93 "Hg10 mi
8:53 PM79 °FSunny.7 mph69%29.90 "Hg10 mi
7:53 PM80 °FScattered clouds.8 mph60%29.90 "Hg10 mi
6:53 PM84 °FSunny.10 mph61%29.88 "Hg10 mi
5:53 PM85 °FSunny.8 mph57%29.87 "Hg10 mi
4:53 PM86 °FRain. Broken clouds.12 mph70%29.88 "Hg6 mi
3:53 PM85 °FScattered clouds.16 mph57%29.89 "Hg10 mi
2:53 PM87 °FScattered clouds.7 mph61%29.90 "Hg10 mi
1:53 PM86 °FBroken clouds.15 mph63%29.92 "Hg10 mi
12:53 PM85 °FLight rain. Scattered clouds.10 mph65%29.95 "Hg7 mi
11:53 AM87 °FBroken clouds.9 mph57%29.97 "Hg10 mi
10:53 AM85 °FScattered clouds.9 mph61%29.98 "Hg10 mi
9:53 AM85 °FScattered clouds.12 mph61%29.98 "Hg10 mi
9:01 AM83 °FScattered clouds.12 mph68%29.98 "Hg10 mi
7:53 AM80 °FScattered clouds.10 mph74%29.96 "Hg10 mi
6:53 AM79 °FPassing clouds.8 mph77%29.96 "Hg10 mi
5:53 AM78 °FPassing clouds.6 mph79%29.95 "Hg10 mi
4:53 AM78 °FPassing clouds.6 mph79%29.96 "Hg10 mi
3:53 AM79 °FPassing clouds.7 mph79%29.97 "Hg10 mi
2:53 AM79 °FPassing clouds.6 mph79%29.98 "Hg10 mi
1:53 AM79 °FPassing clouds.7 mph79%29.99 "Hg10 mi
1:00 AM79 °FPassing clouds.12 mph79%30.00 "Hg10 mi
11:53 PM
Mon, May 2
79 °FPassing clouds.12 mph77%30.01 "Hg10 mi
10:53 PM80 °FPassing clouds.9 mph76%30.02 "Hg10 mi
Weather by CustomWeather, © 2016

See weather overviewHow to use our weather pages